#timestamp,LO_Frequency,Hit,StdDev 
1640534415.7,286047001.1,N
1640534435.5,286046998.3,N
1640534455.3,286046999.0,N
1640534475.2,286046996.7,N
1640534495.9,286046997.4,N
1640534515.7,286046997.1,N
1640534535.6,286046998.0,N
1640534555.4,286046995.3,Y
1640534575.3,286046997.8,P
1640534595.1,286046998.0,P
1640534615.9,286046997.4,P
1640534635.7,286046995.5,Y
1640534655.5,286046999.1,P
1640534675.4,286046998.8,N
1640534695.2,286046998.4,P
1640534715.1,286046998.5,Y
1640534716.0,286046998.5,P
1640534735.8,286047002.2,P
1640534755.6,286047002.1,N
1640534775.5,286047001.4,N
1640534795.3,286047001.7,N
1640534815.1,286047004.3,N
1640534835.9,286047001.8,N
1640534855.7,286047002.0,N
1640534875.6,286047002.8,N
1640534895.4,286047002.4,N
1640534915.2,286047002.2,N
1640534935.1,286047003.6,N
1640534936.0,286047003.6,N
1640534955.8,286047004.1,N
1640534975.6,286047003.5,N
1640534995.5,286047001.4,N
1640535015.3,286047003.2,N
1640535035.2,286047004.2,N
1640535055.9,286047006.0,Y
1640535075.7,286047003.7,P
1640535095.6,286047001.8,N
1640535115.4,286047002.0,N
1640535135.2,286047003.9,Y
1640535155.1,286046998.2,P
1640535156.0,286046998.2,N
1640535175.8,286046998.9,N
1640535195.7,286046998.6,N
1640535215.5,286046998.2,N
1640535235.3,286047000.6,N
1640535255.2,286046998.5,N
1640535275.0,286046998.9,N
1640535275.9,286046998.9,N
1640535295.8,286046998.3,N
1640535315.6,286046998.9,N
1640535335.4,286046998.7,N
1640535355.3,286046998.1,N
1640535375.1,286046998.4,N
1640535395.8,286046998.9,N
1640535415.7,286047001.0,N
1640535435.5,286046999.8,N
1640535455.4,286047000.1,N
1640535475.2,286047000.1,N
1640535495.0,286047002.3,N
1640535495.9,286047002.3,N
1640535515.8,286047002.1,N
1640535535.6,286047002.8,N
1640535555.4,286046999.7,N
1640535575.3,286047000.1,N
1640535595.1,286047002.2,N
1640535615.9,286047004.0,N
1640535635.7,286047001.8,N
1640535655.5,286047004.4,N
1640535675.4,286047004.0,N
1640535695.2,286047004.4,N
1640535715.0,286047003.9,N
1640535715.9,286047003.9,N
1640535735.8,286047001.7,N
1640535755.6,286047004.2,N
1640535775.5,286047001.3,N
1640535795.3,286047004.2,N
1640535815.1,286047004.4,N
1640535835.9,286047003.8,N
1640535855.7,286047004.4,N
1640535875.5,286047004.0,N
1640535895.4,286047003.1,N
1640535915.2,286047003.3,N
1640535935.1,286047005.6,Y
1640535936.0,286047005.6,P
1640535955.8,286047002.2,N
1640535975.6,286047001.3,N
1640535995.5,286047001.7,N
1640536015.3,286047000.0,N
1640536035.1,286047000.4,N
1640536055.9,286046998.9,N
1640536075.7,286047000.9,N
1640536095.6,286047000.3,N
1640536115.4,286047000.3,N
1640536135.2,286047001.1,N
1640536155.1,286046998.2,N
1640536156.0,286046998.2,N
1640536175.8,286047000.5,N
1640536195.7,286047000.5,N
1640536215.5,286047000.4,N
1640536235.3,286047000.4,N
1640536255.2,286047000.2,N
1640536275.9,286046999.8,N
1640536295.7,286047000.9,N
1640536315.6,286047000.1,N
1640536335.4,286047000.1,N
1640536355.3,286047002.6,N
1640536375.1,286047002.4,N
1640536376.0,286047002.4,N
1640536395.8,286047001.6,N
1640536415.7,286047001.4,N
1640536435.5,286047004.2,N
1640536455.3,286047002.0,N
1640536475.2,286047001.6,N
1640536495.0,286047004.4,N
1640536495.9,286047004.4,Y
1640536515.8,286047002.3,P
1640536535.6,286047002.6,P
1640536555.4,286047002.6,P
1640536575.3,286046999.7,N
1640536595.1,286046999.8,N
1640536615.8,286047000.1,N
1640536635.7,286047002.4,N
1640536655.5,286047000.1,N
1640536675.4,286046999.8,N
1640536695.2,286046999.8,N
1640536715.0,286047000.6,N
1640536715.9,286047000.6,N
1640536735.8,286046999.8,N
1640536755.6,286046999.8,N
1640536775.4,286047002.3,N
1640536795.3,286047002.5,N
1640536815.1,286047002.7,N
1640536835.9,286047001.8,N
1640536855.7,286047002.1,N
1640536875.5,286047002.7,N
1640536895.4,286046999.9,N
1640536915.2,286047002.8,N
1640536935.0,286047002.8,N
1640536935.9,286047002.8,N
1640536955.8,286047001.3,N
1640536975.6,286047001.3,N
1640536995.5,286046999.7,N
1640537015.3,286047002.8,N
1640537035.1,286047000.0,N
1640537055.9,286047000.2,N
1640537075.7,286047002.7,N
1640537095.6,286047002.2,N
1640537115.4,286047001.6,N
1640537135.2,286046999.7,N
1640537155.1,286047001.6,N
1640537156.0,286047001.6,N
1640537175.8,286047001.4,N
1640537195.6,286047004.1,Y
1640537215.5,286047004.2,P
1640537235.3,286047001.6,N
1640537255.2,286047001.3,N
1640537275.9,286047001.7,N
1640537295.7,286047004.3,Y
1640537315.6,286046999.7,P
1640537335.4,286047002.8,N
1640537355.3,286047002.7,N
1640537375.1,286047002.6,N
1640537376.0,286047002.6,N
1640537395.8,286047002.8,N
1640537415.7,286047000.6,N
1640537435.5,286047001.2,N
1640537455.4,286046998.6,N
1640537475.2,286047000.7,N
1640537495.0,286046998.2,N
1640537495.9,286046998.2,N
1640537515.8,286047001.1,N
1640537535.6,286046999.4,N
1640537555.4,286047001.2,N
1640537575.3,286047001.1,N
1640537595.1,286046998.3,N
1640537615.9,286046998.8,N
1640537635.7,286046998.8,N
1640537655.5,286046999.2,N
1640537675.4,286046998.7,N
1640537695.2,286046998.2,N
1640537715.1,286046999.0,N
1640537716.0,286046999.0,N
1640537735.8,286046998.8,N
1640537755.6,286046999.1,N
1640537775.5,286046998.4,N
1640537795.3,286046998.5,N
1640537815.1,286047001.2,N
1640537835.9,286047000.7,N
1640537855.7,286047000.2,N
1640537875.6,286046999.7,N
1640537895.4,286047000.0,N
1640537915.2,286047002.7,N
1640537935.1,286047002.3,N
1640537936.0,286047002.3,N
1640537955.8,286047002.5,N
1640537975.6,286047002.4,N
1640537995.5,286047002.0,N
